When you browse on this site, cookies collect data to enhance your experience and personalize the content and advertising you see.
Visit our Privacy Policy to learn more. By continuing to use the site, you agree to this use of cookies and data.
  • In Hungary
  • List of Countries
  • For 7 days
  • Water Temperature
  • Satellite Maps
  • Weather Map
  • News
  • Weather Widgets
  • user-avatar
    Login

    Hourly Weather Kaduna

    Today, 17 January, Thursday

    Time Temperature Precipitation Wind Pressure Humidity
    00:00 +21°C° 0 mm 3 mps 709 mmHg 9%
    01:00 +21°C° 0 mm 3 mps 709 mmHg 9%
    02:00 +20°C° 0 mm 3 mps 708 mmHg 9%
    03:00 +20°C° 0 mm 2 mps 708 mmHg 10%
    04:00 +19°C° 0 mm 3 mps 708 mmHg 10%
    05:00 +19°C° 0 mm 3 mps 709 mmHg 11%
    06:00 +19°C° 0 mm 3 mps 709 mmHg 11%
    07:00 +21°C° 0 mm 3 mps 709 mmHg 10%
    08:00 +25°C° 0 mm 3 mps 710 mmHg 9%
    09:00 +27°C° 0 mm 3 mps 711 mmHg 9%
    10:00 +30°C° 0 mm 4 mps 710 mmHg 8%
    11:00 +34°C° 0 mm 4 mps 710 mmHg 7%
    12:00 +37°C° 0 mm 4 mps 710 mmHg 6%
    13:00 +37°C° 0 mm 4 mps 709 mmHg 7%
    14:00 +37°C° 0 mm 4 mps 709 mmHg 7%
    15:00 +38°C° 0 mm 4 mps 708 mmHg 7%
    16:00 +36°C° 0 mm 4 mps 708 mmHg 8%
    17:00 +33°C° 0 mm 3 mps 708 mmHg 9%
    18:00 +30°C° 0 mm 2 mps 708 mmHg 10%
    19:00 +29°C° 0 mm 3 mps 708 mmHg 10%
    20:00 +28°C° 0 mm 3 mps 709 mmHg 10%
    21:00 +27°C° 0 mm 3 mps 709 mmHg 11%
    22:00 +26°C° 0 mm 3 mps 709 mmHg 10%
    23:00 +25°C° 0 mm 3 mps 709 mmHg 10%

    Tomorrow, 18 January, Friday

    Time Temperature Precipitation Wind Pressure Humidity
    00:00 +24°C° 0 mm 3 mps 709 mmHg 10%
    01:00 +24°C° 0 mm 3 mps 709 mmHg 11%
    02:00 +22°C° 0 mm 3 mps 708 mmHg 11%
    03:00 +21°C° 0 mm 3 mps 708 mmHg 11%
    04:00 +21°C° 0 mm 3 mps 708 mmHg 12%
    05:00 +21°C° 0 mm 2 mps 708 mmHg 12%
    06:00 +20°C° 0 mm 2 mps 709 mmHg 13%
    07:00 +24°C° 0 mm 3 mps 709 mmHg 12%
    08:00 +27°C° 0 mm 3 mps 710 mmHg 10%
    09:00 +29°C° 0 mm 3 mps 711 mmHg 9%
    10:00 +33°C° 0 mm 3 mps 710 mmHg 9%
    11:00 +35°C° 0 mm 3 mps 710 mmHg 8%
    12:00 +38°C° 0 mm 3 mps 710 mmHg 8%
    13:00 +38°C° 0 mm 3 mps 709 mmHg 8%
    14:00 +38°C° 0 mm 3 mps 708 mmHg 8%
    15:00 +38°C° 0 mm 3 mps 708 mmHg 8%
    16:00 +36°C° 0 mm 3 mps 708 mmHg 9%
    17:00 +34°C° 0 mm 3 mps 708 mmHg 10%
    18:00 +31°C° 0 mm 3 mps 708 mmHg 11%
    19:00 +30°C° 0 mm 3 mps 709 mmHg 11%
    20:00 +29°C° 0 mm 3 mps 709 mmHg 11%
    21:00 +28°C° 0 mm 3 mps 710 mmHg 11%
    22:00 +27°C° 0 mm 3 mps 709 mmHg 11%
    23:00 +26°C° 0 mm 3 mps 709 mmHg 12%

    Day after tomorrow, 19 January, Saturday

    Time Temperature Precipitation Wind Pressure Humidity
    00:00 +25°C° 0 mm 2 mps 709 mmHg 13%
    01:00 +24°C° 0 mm 2 mps 708 mmHg 13%
    02:00 +24°C° 0 mm 2 mps 708 mmHg 14%
    03:00 +23°C° 0 mm 2 mps 707 mmHg 15%
    04:00 +23°C° 0 mm 2 mps 708 mmHg 16%
    05:00 +23°C° 0 mm 2 mps 708 mmHg 16%
    06:00 +21°C° 0 mm 2 mps 709 mmHg 17%
    07:00 +25°C° 0 mm 2 mps 709 mmHg 14%
    08:00 +28°C° 0 mm 2 mps 710 mmHg 12%
    09:00 +31°C° 0 mm 2 mps 711 mmHg 10%
    10:00 +34°C° 0 mm 2 mps 711 mmHg 10%
    11:00 +36°C° 0 mm 2 mps 710 mmHg 9%
    12:00 +37°C° 0 mm 1 mps 709 mmHg 8%
    13:00 +37°C° 0 mm 1 mps 709 mmHg 8%
    14:00 +39°C° 0 mm 1 mps 708 mmHg 8%
    15:00 +39°C° 0 mm 1 mps 707 mmHg 8%
    16:00 +36°C° 0 mm 1 mps 707 mmHg 9%
    17:00 +34°C° 0 mm 1 mps 708 mmHg 11%
    18:00 +32°C° 0 mm 1 mps 708 mmHg 13%
    19:00 +30°C° 0 mm 1 mps 708 mmHg 16%
    20:00 +29°C° 0 mm 1 mps 709 mmHg 19%
    21:00 +28°C° 0 mm 1 mps 709 mmHg 22%
    22:00 +28°C° 0 mm 1 mps 709 mmHg 21%
    23:00 +27°C° 0 mm 1 mps 709 mmHg 19%

    20 January, Sunday

    Time Temperature Precipitation Wind Pressure Humidity
    00:00 +26°C° 0 mm 1 mps 708 mmHg 18%
    01:00 +26°C° 0 mm 1 mps 708 mmHg 17%
    02:00 +25°C° 0 mm 1 mps 708 mmHg 15%
    03:00 +25°C° 0 mm 2 mps 708 mmHg 14%
    04:00 +25°C° 0 mm 1 mps 708 mmHg 14%
    05:00 +24°C° 0 mm 1 mps 708 mmHg 14%
    06:00 +24°C° 0 mm 1 mps 709 mmHg 15%
    07:00 +27°C° 0 mm 1 mps 709 mmHg 17%
    08:00 +29°C° 0 mm 2 mps 710 mmHg 19%
    09:00 +32°C° 0 mm 2 mps 711 mmHg 21%
    10:00 +34°C° 0 mm 3 mps 710 mmHg 22%
    11:00 +36°C° 0 mm 3 mps 710 mmHg 22%
    12:00 +37°C° 0 mm 3 mps 709 mmHg 23%
    13:00 +38°C° 0 mm 2 mps 708 mmHg 22%
    14:00 +38°C° 0 mm 2 mps 708 mmHg 21%
    15:00 +39°C° 0 mm 2 mps 707 mmHg 20%
    16:00 +37°C° 0 mm 2 mps 707 mmHg 23%
    17:00 +35°C° 0 mm 2 mps 708 mmHg 26%
    18:00 +34°C° 0 mm 2 mps 708 mmHg 30%
    19:00 +32°C° 0 mm 2 mps 708 mmHg 33%
    20:00 +31°C° 0 mm 1 mps 709 mmHg 35%
    21:00 +30°C° 0 mm 1 mps 709 mmHg 38%
    22:00 +29°C° 0 mm 1 mps 709 mmHg 41%
    23:00 +29°C° 0 mm 1 mps 709 mmHg 43%

    21 January, Monday

    Time Temperature Precipitation Wind Pressure Humidity
    00:00 +28°C° 0 mm 1 mps 708 mmHg 45%
    01:00 +27°C° 0 mm 1 mps 708 mmHg 46%
    02:00 +27°C° 0 mm 1 mps 708 mmHg 47%
    03:00 +26°C° 0 mm 1 mps 707 mmHg 48%
    04:00 +24°C° 0 mm 0 mps 708 mmHg 48%
    05:00 +23°C° 0 mm 0 mps 708 mmHg 49%
    06:00 +23°C° 0 mm 0 mps 708 mmHg 49%
    07:00 +25°C° 0 mm 0 mps 709 mmHg 40%
    08:00 +30°C° 0 mm 1 mps 709 mmHg 31%
    09:00 +33°C° 0 mm 1 mps 710 mmHg 23%
    10:00 +35°C° 0 mm 1 mps 710 mmHg 20%
    11:00 +39°C° 0 mm 1 mps 709 mmHg 17%
    12:00 +41°C° 0 mm 1 mps 709 mmHg 14%
    13:00 +38°C° 0 mm 0 mps 708 mmHg 13%
    14:00 +38°C° 0 mm 0 mps 707 mmHg 13%
    15:00 +38°C° 0 mm 0 mps 707 mmHg 12%
    16:00 +36°C° 0 mm 0 mps 707 mmHg 14%
    17:00 +34°C° 0 mm 0 mps 707 mmHg 16%
    18:00 +33°C° 0 mm 1 mps 707 mmHg 17%
    19:00 +32°C° 0 mm 1 mps 707 mmHg 18%
    20:00 +31°C° 0 mm 1 mps 708 mmHg 19%
    21:00 +30°C° 0 mm 1 mps 708 mmHg 19%
    22:00 +30°C° 0 mm 1 mps 708 mmHg 19%
    23:00 +29°C° 0 mm 1 mps 708 mmHg 19%

    22 January, Tuesday

    Time Temperature Precipitation Wind Pressure Humidity
    00:00 +28°C° 0 mm 1 mps 708 mmHg 19%
    01:00 +27°C° 0 mm 2 mps 707 mmHg 19%
    02:00 +27°C° 0 mm 2 mps 707 mmHg 19%
    03:00 +26°C° 0 mm 2 mps 707 mmHg 19%
    04:00 +25°C° 0 mm 2 mps 707 mmHg 19%
    05:00 +25°C° 0 mm 2 mps 707 mmHg 19%
    06:00 +24°C° 0 mm 2 mps 708 mmHg 20%
    07:00 +27°C° 0 mm 2 mps 708 mmHg 17%
    08:00 +29°C° 0 mm 2 mps 709 mmHg 15%
    09:00 +33°C° 0 mm 3 mps 710 mmHg 12%
    10:00 +35°C° 0 mm 2 mps 709 mmHg 11%
    11:00 +37°C° 0 mm 2 mps 709 mmHg 11%
    12:00 +39°C° 0 mm 2 mps 709 mmHg 11%
    13:00 +39°C° 0 mm 1 mps 708 mmHg 11%
    14:00 +40°C° 0 mm 1 mps 707 mmHg 11%
    15:00 +40°C° 0 mm 1 mps 707 mmHg 11%
    16:00 +37°C° 0 mm 1 mps 707 mmHg 13%
    17:00 +35°C° 0 mm 1 mps 707 mmHg 15%
    18:00 +31°C° 0 mm 0 mps 707 mmHg 17%
    19:00 +32°C° 0 mm 1 mps 707 mmHg 17%
    20:00 +31°C° 0 mm 1 mps 707 mmHg 18%
    21:00 +29°C° 0 mm 2 mps 708 mmHg 18%
    22:00 +29°C° 0 mm 1 mps 707 mmHg 19%
    23:00 +28°C° 0 mm 1 mps 707 mmHg 19%
    Show more